PDT,Max TemperatureF,Mean TemperatureF,Min TemperatureF,Max Dew PointF,MeanDew PointF,Min DewpointF,Max Humidity, Mean Humidity, Min Humidity, Max Sea Level PressureIn, Mean Sea Level PressureIn, Min Sea Level PressureIn, Max VisibilityMiles, Mean VisibilityMiles, Min VisibilityMiles, Max Wind SpeedMPH, Mean Wind SpeedMPH, Max Gust SpeedMPH,PrecipitationIn, CloudCover, Events, WindDirDegrees
2014-7-1,90,69,47,43,38,29,68,40,12,30.11,29.95,29.89,10,10,10,16,3,22,0.00,0,Thunderstorm,207
2014-7-2,87,66,45,46,40,37,71,43,15,29.98,29.95,29.93,10,10,10,17,5,27,0.00,0,,204
2014-7-3,85,66,46,43,36,25,66,39,11,30.05,30.00,29.96,10,10,10,16,3,23,0.00,0,,173
2014-7-4,84,63,41,41,34,27,71,42,13,30.12,30.07,30.04,10,10,10,21,4,32,0.00,0,,196
2014-7-5,86,65,43,38,34,29,65,39,13,30.20,30.15,30.12,10,10,10,15,3,23,0.00,0,,194
2014-7-6,90,66,42,39,32,24,70,40,10,30.26,30.14,30.06,10,10,10,14,3,17,0.00,0,,99
2014-7-7,88,68,47,46,39,30,66,40,13,30.08,30.03,29.98,10,10,10,15,3,22,T,1,,80
2014-7-8,86,72,58,51,47,40,64,44,24,30.06,30.00,29.96,10,10,10,12,3,16,0.00,4,,177
2014-7-9,87,68,48,47,40,29,80,47,13,30.06,30.01,29.96,10,10,10,16,3,24,0.00,0,,196
2014-7-10,83,66,48,47,42,35,71,45,18,30.14,29.97,29.91,10,10,10,17,4,23,T,3,Rain,143
2014-7-11,80,68,56,47,44,40,62,44,25,30.11,30.01,29.93,10,10,10,14,4,18,0.00,4,,175
2014-7-12,86,68,49,48,45,40,77,49,20,30.14,30.11,30.08,10,10,10,14,2,19,0.00,0,,40
2014-7-13,91,71,51,51,46,40,77,48,19,30.16,30.09,30.04,10,10,10,14,4,18,0.00,0,,188
2014-7-14,92,72,51,46,44,43,71,66,60,30.07,30.06,30.06,10,10,10,22,0,35,T,0,,-1
2014-7-15,90,74,58,,,,,,,,,,,,,25,,33,T,,,
2014-7-16,87,70,53,52,49,41,55,37,19,30.01,29.99,29.96,10,10,10,17,10,21,0.00,1,,121
2014-7-17,85,72,58,61,54,47,84,56,28,30.25,30.18,29.97,10,10,4,10,5,20,0.13,3,Rain-Thunderstorm,178
2014-7-18,87,69,50,64,54,44,90,58,25,30.20,30.04,29.97,10,9,2,17,3,25,0.15,2,Rain,33
2014-7-19,86,70,53,53,50,38,89,56,23,30.06,30.01,29.98,10,10,10,21,4,31,0.01,2,Rain,183
2014-7-20,78,66,55,54,51,48,80,58,35,30.25,30.03,29.95,10,9,3,10,3,25,0.14,4,Rain,190
2014-7-21,76,63,49,52,49,46,77,57,36,30.12,30.08,30.04,10,10,10,18,6,23,0.01,2,,186
2014-7-22,78,64,49,49,46,44,83,58,33,30.14,30.11,30.06,10,10,10,17,3,27,0.00,0,,73
2014-7-23,78,62,46,45,38,32,82,52,21,30.13,30.10,30.07,10,10,10,23,6,37,0.00,0,,196
2014-7-24,82,62,41,43,38,33,73,46,18,30.12,30.05,29.97,10,10,10,14,4,18,0.00,0,,108
2014-7-25,85,64,42,42,36,29,76,45,14,30.06,30.01,29.98,10,10,10,18,3,26,0.00,0,,201
2014-7-26,86,63,40,39,35,26,76,45,13,30.13,30.09,30.06,10,10,10,14,4,19,0.00,0,,195
2014-7-27,87,68,48,43,37,30,63,39,14,30.15,30.11,30.08,10,10,10,16,3,21,0.00,1,,67
2014-7-28,87,70,53,44,40,36,66,41,16,30.17,30.13,30.10,10,10,4,15,2,20,0.00,2,,198
2014-7-29,87,71,55,56,44,37,80,50,19,30.37,30.19,30.09,10,10,5,18,3,26,0.04,5,Rain-Thunderstorm,171
2014-7-30,80,65,50,52,48,44,83,57,30,30.36,30.22,30.13,10,10,10,15,4,21,0.01,3,Rain-Thunderstorm,163
2014-7-31,85,66,47,51,45,41,80,52,23,30.21,30.13,30.06,10,10,10,14,3,17,0.00,2,,78